Location: Unspecified
(0.0000°N, 0.0000°E)
Time: 16:40:08
(UTC+00:00)

Vanguard 3 - All Passes

Search period start: 18 June 2019 00:00
Search period end: 28 June 2019 00:00
Orbit: 508 x 3263 km, 33.3° (Epoch: 17 June)

Date Brightness Start Highest point End Pass type
(mag) Time Alt. Az. Time Alt. Az. Time Alt. Az.
18 Jun - 01:04:37 10° SW 01:10:40 15° S 01:18:22 10° SSE visible
18 Jun - 03:22:52 10° SSW 03:31:59 16° S 03:42:18 10° SE visible
18 Jun - 05:37:33 10° SSW 05:53:48 31° SSE 06:08:52 10° E visible
18 Jun - 07:52:49 10° SW 08:12:41 67° SE 08:26:27 10° ENE daylight
18 Jun - 10:11:36 10° WSW 10:28:11 50° NW 10:38:17 10° NNE daylight
18 Jun - 12:39:37 10° NW 12:41:52 11° NW 12:43:55 10° NNW daylight
18 Jun - 19:24:34 10° N 19:27:25 18° NE 19:30:56 10° E visible
18 Jun - 21:33:56 10° WNW 21:38:50 51° SSW 21:47:11 10° SE visible
18 Jun - 23:48:23 10° SW 23:53:50 18° SSW 00:01:19 10° SSE night (unlit)
19 Jun - 02:07:10 10° SSW 02:13:04 13° S 02:19:58 10° SSE visible
19 Jun - 04:22:07 10° SSW 04:35:04 23° SSE 04:48:53 10° ESE visible
19 Jun - 06:36:17 10° SW 06:55:14 49° SSE 07:10:43 10° E daylight
19 Jun - 08:52:55 10° WSW 09:12:25 78° NW 09:24:54 10° NE daylight
19 Jun - 11:15:18 10° W 11:26:47 25° NW 11:34:36 10° NNE daylight
19 Jun - 20:20:46 10° NW 20:24:55 73° NE 20:31:28 10° ESE visible
19 Jun - 22:33:06 10° WSW 22:38:03 23° SSW 22:45:26 10° SSE night (unlit)
20 Jun - 00:51:03 10° SSW 00:55:07 12° S 00:59:53 10° SSE visible
20 Jun - 03:07:13 10° SSW 03:16:08 16° SSE 03:26:25 10° SE visible
20 Jun - 05:20:33 10° SSW 05:37:09 35° SSE 05:53:12 10° E visible
20 Jun - 07:35:28 10° SW 07:55:44 76° SE 08:10:28 10° ENE daylight
20 Jun - 09:54:38 10° WSW 10:11:27 45° NW 10:22:14 10° NNE daylight
20 Jun - 12:25:48 10° NW 12:25:56 10° NW 12:26:03 10° NW daylight
20 Jun - 19:08:28 10° NNW 19:11:33 23° NE 19:15:24 10° E visible
20 Jun - 21:18:46 10° W 21:23:11 36° SSW 21:30:09 10° SE visible
20 Jun - 23:34:34 10° SW 23:38:19 13° S 23:42:53 10° SSE night (unlit)
21 Jun - 01:52:58 10° S 01:57:29 12° S 02:02:36 10° SSE visible
21 Jun - 04:05:35 10° SSW 04:18:45 24° SSE 04:33:17 10° ESE visible
21 Jun - 06:19:05 10° SW 06:38:16 55° SSE 06:54:46 10° ENE daylight
21 Jun - 08:35:43 10° WSW 08:55:27 70° NW 09:08:47 10° NE daylight
21 Jun - 10:58:59 10° W 11:10:24 23° NW 11:18:29 10° N daylight
21 Jun - 20:05:14 10° WNW 20:09:10 80° SW 20:15:04 10° SE visible
21 Jun - 22:18:41 10° SW 22:22:31 17° SSW 22:27:39 10° SSE night (unlit)
22 Jun - 02:51:23 10° SSW 03:00:13 17° SSE 03:10:36 10° SE visible
22 Jun - 05:03:38 10° SSW 05:20:23 39° SSE 05:37:20 10° E visible
22 Jun - 07:18:16 10° SW 07:38:38 84° SE 07:54:20 10° ENE daylight
22 Jun - 09:37:48 10° WSW 09:54:40 41° NW 10:06:04 10° NNE daylight
22 Jun - 18:52:27 10° NNW 18:55:47 32° NE 18:59:47 10° ESE visible
22 Jun - 21:03:48 10° W 21:07:36 25° SSW 21:13:04 10° SSE visible
23 Jun - 01:38:52 10° S 01:41:55 11° SSE 01:45:15 10° SSE visible
23 Jun - 03:49:02 10° SSW 04:02:18 27° SSE 04:17:31 10° ESE visible
23 Jun - 06:02:01 10° SW 06:21:10 61° SE 06:38:38 10° ENE daylight
23 Jun - 08:18:40 10° WSW 08:38:22 63° NW 08:52:34 10° NE daylight
23 Jun - 10:42:47 10° WNW 10:54:02 21° NW 11:02:19 10° N daylight
23 Jun - 17:42:01 10° NNE 17:42:11 10° NNE 17:42:20 10° NE daylight
23 Jun - 19:49:48 10° WNW 19:53:31 52° SSW 19:58:39 10° SE visible
23 Jun - 22:05:17 10° SSW 22:07:03 11° SSW 22:09:04 10° S night (unlit)
24 Jun - 02:35:23 10° SSW 02:44:13 17° SSE 02:54:50 10° ESE visible
24 Jun - 04:46:48 10° SSW 05:03:27 43° SSE 05:21:14 10° E visible
24 Jun - 07:01:12 10° SW 07:21:24 88° NW 07:38:02 10° NE daylight
24 Jun - 09:21:07 10° W 09:37:52 37° NW 09:49:50 10° NNE daylight
24 Jun - 18:36:32 10° NW 18:40:03 47° NE 18:44:05 10° ESE visible
24 Jun - 20:49:10 10° WSW 20:52:06 17° SSW 20:55:48 10° SSE visible
25 Jun - 01:24:57 10° SSE 01:26:19 10° SSE 01:27:43 10° SSE visible
25 Jun - 03:32:31 10° SSW 03:45:44 29° SSE 04:01:35 10° E visible
25 Jun - 05:45:06 10° SW 06:03:57 68° SE 06:22:18 10° ENE daylight
25 Jun - 08:01:47 10° WSW 08:21:15 57° NW 08:36:12 10° NE daylight
25 Jun - 10:26:43 10° WNW 10:37:44 20° NNW 10:46:08 10° N daylight
25 Jun - 17:24:07 10° N 17:26:30 15° NNE 17:28:46 10° ENE daylight
25 Jun - 19:34:30 10° W 19:37:54 33° SSW 19:42:12 10° SE visible
26 Jun - 02:19:17 10° SSW 02:28:07 18° SSE 02:39:03 10° ESE visible
26 Jun - 04:30:05 10° SW 04:46:25 48° SE 05:04:56 10° ENE visible
26 Jun - 06:44:19 10° WSW 07:04:06 81° NW 07:21:35 10° NE daylight
26 Jun - 09:04:36 10° W 09:21:06 34° NW 09:33:30 10° NNE daylight
26 Jun - 18:20:40 10° NW 18:24:23 75° NE 18:28:19 10° ESE visible
26 Jun - 20:35:37 10° SW 20:36:36 11° SSW 20:37:38 10° S visible
27 Jun - 03:16:03 10° SSW 03:29:03 32° SE 03:45:25 10° E visible
27 Jun - 05:28:19 10° SW 05:46:39 75° SE 06:05:46 10° ENE visible
27 Jun - 07:45:05 10° WSW 08:04:08 52° NW 08:19:44 10° NE daylight
27 Jun - 10:10:46 10° WNW 10:21:29 18° NNW 10:29:56 10° N daylight
27 Jun - 17:07:26 10° NNW 17:10:52 23° NNE 17:13:52 10° E daylight
27 Jun - 19:19:23 10° W 19:22:19 22° SSW 19:25:39 10° SSE visible
